Вернуться в каталог

MALLIGYONG-1

АктивенВоенныеSSO
NORAD 58400·PAYLOAD·🇰🇵 North Korea

Запущен Nov 21, 2023 с Sohae Satellite Launching Station

Loading…

Ближайшие Пролёты (ближайшие 24 часа)

TLE

СвежийSource: Space-Track

Эпоха: Sep 14, 2026, 22:13 UTC

1 58400U 23179A   26257.92602625  .00002657  00000-0  11552-3 0  9990
2 58400  97.2858 136.8952 0010089  75.5965 284.6391 15.23075490156413

Отслеживайте MALLIGYONG-1 в реальном времени с AllMySat

Download on the App Store